Location: Deerlick Astronomy Village
(33.5614°N, 82.7631°W)
Time: 22:24:28
(UTC-04:00)

ISS - Visible Passes

Search period start: 20 May 2019 00:00
Search period end: 30 May 2019 00:00
Orbit: 407 x 410 km, 51.6° (Epoch: 21 May)

Date Brightness Start Highest point End Pass type
(mag) Time Alt. Az. Time Alt. Az. Time Alt. Az.
20 May -0.1 03:07:52 10° NNE 03:08:21 10° NNE 03:08:50 10° NE visible
20 May -3.7 04:42:06 10° NW 04:45:24 75° NE 04:48:41 10° SE visible
20 May -2.0 21:20:11 10° WSW 21:23:14 34° NW 21:26:18 10° NNE visible
21 May -1.8 05:32:06 13° SSW 05:32:06 13° SSW 05:32:50 10° SSW visible
22 May -0.6 21:16:02 10° WNW 21:18:07 16° NNW 21:20:12 10° N visible
29 May -0.7 23:26:41 10° N 23:27:31 12° NNE 23:27:31 12° NNE visible
